Location: Caltech
(34.1382°N, 118.1253°W)
Time: 11:14:26
(UTC-07:00)

SEDSat Delta rocket - Visible Passes

Search period start: 25 October 2014 00:00
Search period end: 03 November 2014 23:00
Orbit: 534 x 1010 km, 31.4° (Epoch: 24 October)

Date Brightness Start Highest point End Pass type
(mag) Time Alt. Az. Time Alt. Az. Time Alt. Az.
25 Oct 4.7 19:30:38 10° SW 19:36:01 30° SSE 19:37:41 26° SE visible
25 Oct 6.0 21:16:27 10° WSW 21:17:55 18° WSW 21:17:55 18° WSW visible
26 Oct 5.1 18:51:24 10° SSW 18:56:47 28° SSE 19:00:55 14° ESE visible
26 Oct 4.7 20:37:01 10° WSW 20:41:09 39° SW 20:41:09 39° SW visible
27 Oct 4.0 19:57:35 10° WSW 20:03:47 52° SSE 20:04:19 51° SSE visible
27 Oct 6.5 21:44:16 10° W 21:44:33 11° W 21:44:33 11° W visible
28 Oct 4.3 19:18:10 10° WSW 19:24:30 50° SSE 19:27:27 28° ESE visible
28 Oct 5.5 21:04:46 10° W 21:07:41 28° WSW 21:07:41 28° WSW visible
29 Oct 4.5 18:38:47 10° SW 18:45:11 47° SSE 18:50:33 13° E visible
29 Oct 4.1 20:25:16 10° W 20:30:46 60° SW 20:30:46 60° SW visible
30 Oct 3.9 19:45:47 10° WSW 19:52:22 68° S 19:53:51 51° ESE visible
30 Oct 6.2 21:32:44 10° W 21:34:04 17° W 21:34:04 17° W visible
31 Oct 4.1 19:06:18 10° WSW 19:13:00 67° S 19:16:55 24° E visible
31 Oct 5.1 20:53:12 10° W 20:57:08 37° WSW 20:57:08 37° WSW visible
01 Nov 4.3 18:26:52 10° WSW 18:33:37 65° S 18:39:58 10° E visible
01 Nov 3.9 20:13:41 10° W 20:20:12 67° SSW 20:20:12 67° SSW visible
02 Nov 4.0 18:34:11 10° W 18:40:55 69° S 18:43:17 40° ESE visible
02 Nov 6.0 20:21:16 10° W 20:23:31 21° W 20:23:31 21° W visible
03 Nov 4.2 17:54:43 10° W 18:01:31 71° S 18:06:24 18° ESE visible
03 Nov 4.9 19:41:43 10° W 19:46:38 41° SW 19:46:38 41° SW visible
